Volver al catálogo

SL-23 DEB

ActivoMEO
NORAD 43381·DEBRIS·🇷🇺 Russia

Lanzado Apr 27, 2008 desde Baikonur Cosmodrome

Loading…

Próximos Pases (próximas 24 horas)

TLE

ActualizadoSource: Space-Track

Época: Sep 10, 2026, 11:39 UTC

1 43381U 08020C   26253.48588273 -.00000084  00000-0  00000+0 0  9994
2 43381  60.0879  26.8961 0658027 207.1290 152.2577  1.67820328 78452

Sigue SL-23 DEB en tiempo real con AllMySat

Download on the App Store